Regional Weather Roundup
Issued by NWS Charleston, SC

Current Version | Previous Version | Graphics & Text | Print | Product List | Glossary On
Versions: 1 2 3 4 5 6 7 8 9 10 11 12 13 14 15 16 17 18 19 20 21 22 23 24 25 26 27 28 29 30 31 32 33 34 35 36 37 38 39 40 41 42 43 44 45 46 47 48 49 50
000 ASUS42 KCHS 251326 RWRCHS REGIONAL WEATHER ROUNDUP NATIONAL WEATHER SERVICE CHARLESTON SC 800 AM EST SAT FEB 25 2017 NOTE: "FAIR" INDICATES FEW OR NO CLOUDS BELOW 12,000 FEET WITH NO SIGNIFICANT WEATHER AND/OR OBSTRUCTIONS TO VISIBILITY. NOT ALL STATIONS ARE QUALITY CONTROLLED. USE DATA WITH CAUTION... ESPECIALLY DEWPOINT OBSERVATIONS. SCZ027-030-031-034>040-042>050-251400- ...SOUTHEAST SOUTH CAROLINA... CITY SKY/WX TMP DP RH WIND PRES REMARKS N CHARLESTON MOSUNNY 61 60 97 SW7 29.81S FOG WATERFRONT PRK N/A 62 62 100 VRB3 29.81S MOUNT PLEASANT FAIR 64 64 100 S8 29.82S JOHNS ISLAND PTSUNNY 66 66 100 S8 29.83R PINOPOLIS N/A N/A N/A N/A SW6 29.71S MONCKS CORNER FAIR 61 59 94 S3 29.81S SUMMERVILLE PTSUNNY 61 61 100 SW6 29.82S BEAUFORT MCAS PTSUNNY 65 65 100 SW10 29.83S BEAUFORT ARPT FAIR 64 63 94 SW8 29.83R HILTON HEAD IS SUNNY 64 64 100 SW9 29.84R WALTERBORO CLOUDY 61 61 100 SW10 29.83S ALLENDALE CLOUDY 63 61 94 VRB6 29.81R ...SOUTHERN MIDLANDS AND PEE DEE... CITY SKY/WX TMP DP RH WIND PRES REMARKS GEORGETOWN FAIR 61 61 100 SW6 29.83R KINGSTREE FAIR 61 57 88 CALM 29.80S ORANGEBURG CLOUDY 60 60 100 SW8 29.80S BARNWELL CLOUDY 63 63 100 S5 29.80S AIKEN PTSUNNY 61 59 94 S6 29.81S MANNING FAIR 61 59 94 MISG 29.80S COLUMBIA CLOUDY 64 60 87 SW7 29.76S SUMTER MOSUNNY 60 58 94 S6 29.76S FLORENCE SUNNY 60 59 96 SW6 29.79S MYRTLE BEACH MOSUNNY 55 55 100 CALM 29.83S N MYRTLE BEACH FOG 56 56 100 CALM 29.81R VSB 1/4 $$ GAZ063-065-086>088-099>101-113>116-118-119-134>141-150-251400- ...SOUTHEAST GEORGIA... CITY SKY/WX TMP DP RH WIND PRES REMARKS SAVANNAH ARPT PTSUNNY 64 61 90 SW7 29.85R HUNTER AAF CLOUDY 63 63 100 SW7 29.83R FORT STEWART PTSUNNY 63 63 99 CALM 29.83R STATESBORO MOSUNNY 65 32 28 S6 29.83S SYLVANIA MOSUNNY N/A N/A N/A SW3 29.83S CLAXTON FAIR N/A N/A N/A CALM 29.84S ...CSRA...CENTRAL AND FAR SOUTHEAST GEORGIA... CITY SKY/WX TMP DP RH WIND PRES REMARKS THOMSON MOSUNNY 63 63 97 W5 29.83R AUGUSTA-BUSH PTSUNNY 64 61 90 S8 29.77S AUGUSTA-DANIEL CLOUDY 63 58 83 S8 29.78S SWAINSBORO FAIR 63 63 100 SW6 29.83R VIDALIA MOSUNNY 64 64 100 SW7 29.84R EASTMAN CLOUDY 63 63 100 W7 29.87R HAZLEHURST FAIR 66 65 95 SW8 29.84S ALMA PTSUNNY 63 62 97 SW5 29.86R WAYCROSS CLOUDY 65 65 100 SW6 29.88R JESUP CLOUDY 63 61 94 CALM 29.87R BAXLEY FAIR 64 64 100 SW3 29.86R BRUNSWICK CLOUDY 64 64 100 SW6 29.88R SAINT SIMONS CLOUDY 64 63 96 SW7 29.87R $$ SCZ027-028-034-036>038-045-046-048>050-GAZ119-141-251400- ...LAKE AND SUPPLEMENTAL COASTAL OBSERVATIONS... STATION/POSITION TIME TEMP WIND PRES WAVE SWELL AIR SEA DIR/SP/G HT/PER HT/PER/DIR (UTC) (F) (DEG/KT/KT) (MB) (FT/S) (FT/S/D) WINYAH BAY 1230 57 210/ 2 1009.0S LAKE MURRAY 1230 61 200/ 7/ 10 1007.1F ACE BASIN NERRS 1230 62 CALM 1010.0R FORT PULASKI 1300 63 63 250/ 6/ 9 1010.8 SAPELO ISLAND 1300 64 220/ 7 1011.0 $$ ANZ835-935-AMZ111-154-330-350-352-354-370-450-454-472-251400- ...C-MAN AND BUOY OBSERVATIONS... STATION/POSITION TIME TEMP WIND PRES WAVE SWELL AIR SEA DIR/SP/G HT/PER HT/PER/DIR (UTC) (F) (DEG/KT/KT) (MB) (FT/S) (FT/S/D) BUOY 41004 1250 70 70 240/ 10/ 12 1009.6R 7/11 7/110/11 BUOY 41008 1250 62 62 230/ 8/ 10 1010.6R 4/11 3/ 70/11 FOLLY BEACH CMAN 1300 62 220/ 8/ 9 1010.3S CAPERS NEARSHORE 1208 60 60 250/ 4/ 6 1009.5R FRIPP NEARSHORE 1308 62 61 220/ 10/ 14 1010.0R STATION/POSITION TIME TEMP WIND PRES WAVE SWELL AIR SEA DIR/SP/G HT/PER HT/PER/DIR (UTC) (F) (DEG/KT/KT) (MB) (FT/S) (FT/S/D) 5E ST. MARYS GA 1300 64 N/A 4/10 2/100/11 FRYING PAN BUOY 1250 69 72 270/ 8/ 10 1009.8R 6/11 5/110/11 BUOY 41025 1250 71 76 340/ 6/ 8 1008.8R 8/11 8/140/11 CAPE LOOKOUT NC 1300 63 330/ 2/ 3 1008.9R BUOY 41002 1250 70 70 360/ 8/ 10 1008.2R 9/10 8/120/10 BUOY 41010 NOT AVBL ST AUGUSTINE FL 1300 64 67 240/ 5/ 7 1013.2R $$

USA.gov is the U.S. government's official web portal to all federal, state and local government web resources and services.